Theta_e
301 301 303 305 305 307 307 308 310 312 312 310 309 308 307 305 304 303 303 302 301 301 301 301 301 301 302
298 299 300 302 304 303 302 304 307 309 309 308 307 306 305 304 303 302 301 300 299 299 299 299 298 299 300
297 299 299 300 299 299 299 299 299 303 307 307 305 305 304 304 302 301 300 298 297 297 297 297 297 297 298
298 297 298 297 298 297 295 297 296 296 299 300 303 304 303 302 301 300 299 296 295 296 296 297 297 297 297
296 296 294 295 297 296 296 296 296 296 294 293 294 295 296 298 297 298 296 295 295 296 296 296 297 297 297
296 295 294 295 296 296 293 292 291 292 291 290 290 290 291 293 293 294 294 296 296 296 296 296 295 295 296
297 297 295 295 294 292 290 290 290 288 289 287 288 289 292 291 293 294 294 294 295 295 295 295 294 294 294
300 298 298 296 296 294 292 289 287 287 289 287 288 289 291 291 290 291 292 292 292 291 291 292 292 292 292
298 298 298 297 294 291 288 287 286 287 289 290 288 288 286 287 289 289 291 289 289 290 290 290 290 290 290
294 295 295 295 294 293 291 289 288 288 289 288 283 284 284 286 287 287 288 287 288 288 288 288 289 288 288
290 291 292 292 292 292 292 291 287 285 286 286 285 284 285 285 285 286 286 286 285 285 286 286 286 286 285
289 289 288 287 286 285 285 285 287 288 288 286 284 285 283 281 281 283 284 285 284 284 284 285 285 285 286
287 286 285 285 284 283 283 284 284 285 285 284 285 282 282 281 280 281 281 282 283 283 284 284 283 283 282
285 284 283 283 283 283 282 281 282 282 282 283 283 282 281 280 280 279 280 278 282 282 282 282 283 283 282
283 283 282 282 282 281 281 282 283 281 280 280 279 280 281 279 278 279 279 279 280 280 280 280 281 281 281
282 282 282 282 281 280 281 281 281 279 279 279 279 279 279 279 280 279 279 278 280 280 279 277 277 281 282
280 279 280 283 283 282 281 281 280 280 279 277 276 276 274 273 279 283 278 278 278 278 279 278 277 279 281
Wind_Speed
2 2 6 8 7 7 6 7 6 10 12 11 10 9 9 8 7 7 5 5 5 6 6 7 7 7 6
3 2 2 5 7 7 5 4 6 10 12 11 10 9 9 8 7 7 5 5 4 5 5 6 7 8 7
5 2 2 4 4 4 4 4 2 5 8 9 10 10 9 9 9 7 5 4 4 4 6 7 6 7 8
4 3 3 3 4 5 4 2 4 2 4 5 5 7 8 10 8 6 7 5 4 7 8 8 8 8 9
4 3 3 4 8 4 4 4 2 2 2 1 2 2 3 4 3 7 6 5 7 8 9 9 10 11 12
3 3 4 3 4 5 4 4 4 2 2 2 3 3 3 3 5 6 6 7 8 8 8 7 7 11 14
5 4 5 5 6 4 3 2 3 2 3 3 2 3 3 3 5 5 6 5 5 6 7 7 7 8 10
5 5 3 7 7 4 4 5 3 2 2 3 2 3 2 2 1 2 2 1 2 2 4 7 10 13 14
13 12 11 13 9 7 4 4 2 2 2 2 2 2 0 1 0 3 5 2 3 7 9 10 12 13 7
7 9 7 8 7 1 5 5 3 2 3 3 2 2 1 1 0 1 1 2 7 6 9 10 10 6 6
6 6 5 6 4 4 3 3 3 1 3 3 2 2 0 0 1 0 2 3 4 6 6 6 8 9 7
5 4 4 3 3 4 4 4 3 2 7 3 3 2 2 0 3 2 3 5 5 4 4 7 9 10 12
3 2 2 3 6 5 6 7 7 6 4 3 4 3 2 2 3 4 6 4 7 7 4 5 7 5 7
3 4 4 3 3 2 2 2 3 2 3 3 3 2 1 3 4 7 6 5 4 5 6 6 6 7 7
3 3 3 2 1 1 2 2 2 2 2 2 2 1 3 4 5 6 6 7 6 7 4 6 8 7 7
3 2 2 3 3 1 1 1 2 2 1 2 1 2 1 4 12 7 6 5 6 5 4 5 9 7 7
4 4 2 1 2 1 2 2 3 2 2 2 2 1 3 5 3 13 6 5 4 5 5 6 7 9 9
Wind_Direction
108 131 169 177 171 186 183 189 193 189 160 155 151 159 164 176 183 197 207 229 252 270 279 292 295 294 293
120 139 106 170 158 156 159 173 172 173 159 156 163 167 172 180 187 200 211 229 256 267 273 280 289 293 291
127 129 125 141 132 114 136 110 101 135 154 166 173 176 176 189 201 204 202 207 222 255 264 269 267 274 282
125 128 124 146 141 155 158 136 152 141 127 142 153 179 193 207 202 186 188 206 248 264 261 260 251 266 278
124 132 143 151 185 163 134 140 134 146 144 155 169 173 182 163 170 180 202 232 252 259 261 271 266 270 284
134 146 148 136 143 155 123 141 189 185 143 183 180 197 191 201 214 212 234 254 266 275 279 279 292 294 291
138 153 151 156 137 126 136 130 143 157 129 174 189 198 199 190 205 231 249 270 293 292 284 295 300 300 305
111 119 120 131 137 132 125 101 77 100 188 171 167 189 170 200 319 360 299 233 110 41 309 297 294 295 294
96 109 121 128 129 116 131 132 134 164 184 139 159 181 150 251 259 245 149 96 14 332 315 307 303 302 312
95 92 101 120 132 28 150 150 128 173 175 164 133 157 213 178 190 184 256 341 328 325 320 312 312 304 297
98 91 84 87 77 72 86 124 137 127 173 116 148 157 127 347 310 189 319 319 309 310 303 311 306 313 297
112 123 124 108 77 65 61 67 62 103 143 128 122 140 121 340 269 326 280 287 290 286 293 296 294 301 293
123 114 99 108 117 93 80 84 78 83 94 93 115 126 146 204 274 279 312 305 301 289 282 301 303 302 299
100 94 109 115 117 132 132 107 93 100 54 76 96 129 159 249 259 275 272 276 297 299 301 292 289 289 285
107 116 102 106 91 71 88 145 166 162 159 138 66 291 256 259 276 265 266 267 264 278 273 292 296 290 285
70 78 110 118 115 114 49 223 215 183 154 137 165 239 285 252 224 261 269 269 270 271 263 289 290 292 289
65 53 45 56 152 189 203 226 252 231 201 154 177 196 267 285 302 222 251 255 284 288 281 268 281 291 300